Location: Corte Bragagnani
(45.3000°N, 11.1000°E)
Time: 03:06:11
(UTC+00:00)

IGS 5A - Pass Details

Date: 09 April 2020
Orbit: 585 x 587 km, 97.6° (Epoch: 01 June)

Event Time Altitude Azimuth Distance (km) Brightness Sun altitude
Exits shadow 20:20:46 64° 36° (NE) 653 3.6 -23.7°
Drops below altitude 10° 20:24:31 10° 352° (N) 1,920 6.7 -24.2°
Sets 20:26:42 0° 350° (N) 2,825 7.7 -24.5°
